owner,sensor,date,latitude,longitude,vertical_datum,wind_speed,wind_to_direction,wind_speed_of_gust,qcFlag 
WAVCIS,ioos:station:WAVCIS:CSI09:1,2009-06-01T00:00:00Z,29.1015,-89.9782,0.0,3.921,102.0,,'11111222,11111222,99999999' 
WAVCIS,ioos:station:WAVCIS:CSI09:1,2009-06-01T01:00:00Z,29.1015,-89.9782,0.0,4.817,117.0,,'11111222,11111222,99999999' 
WAVCIS,ioos:station:WAVCIS:CSI09:1,2009-06-01T02:00:00Z,29.1015,-89.9782,0.0,4.831,129.0,,'11111222,11111222,99999999' 
WAVCIS,ioos:station:WAVCIS:CSI09:1,2009-06-01T03:00:00Z,29.1015,-89.9782,0.0,3.632,123.0,,'11111222,11111222,99999999' 
WAVCIS,ioos:station:WAVCIS:CSI09:1,2009-06-01T04:00:00Z,29.1015,-89.9782,0.0,4.285,131.0,,'11111222,11111222,99999999' 
WAVCIS,ioos:station:WAVCIS:CSI09:1,2009-06-01T05:00:00Z,29.1015,-89.9782,0.0,4.234,145.0,,'11111222,11111222,99999999' 
WAVCIS,ioos:station:WAVCIS:CSI09:1,2009-06-01T06:00:00Z,29.1015,-89.9782,0.0,4.533,160.0,,'11111222,11111222,99999999' 
WAVCIS,ioos:station:WAVCIS:CSI09:1,2009-06-01T07:00:00Z,29.1015,-89.9782,0.0,4.186,164.0,,'11111222,11111222,99999999' 
WAVCIS,ioos:station:WAVCIS:CSI09:1,2009-06-01T08:00:00Z,29.1015,-89.9782,0.0,2.817,152.0,,'11111222,11111222,99999999' 
WAVCIS,ioos:station:WAVCIS:CSI09:1,2009-06-01T09:00:00Z,29.1015,-89.9782,0.0,2.326,139.0,,'11111222,11111222,99999999' 
WAVCIS,ioos:station:WAVCIS:CSI09:1,2009-06-01T10:00:00Z,29.1015,-89.9782,0.0,2.851,137.0,,'11111222,11111222,99999999' 
WAVCIS,ioos:station:WAVCIS:CSI09:1,2009-06-01T11:00:00Z,29.1015,-89.9782,0.0,3.755,150.0,,'11111222,11111222,99999999' 
WAVCIS,ioos:station:WAVCIS:CSI09:1,2009-06-01T12:00:00Z,29.1015,-89.9782,0.0,2.988,144.0,,'11111222,11111222,99999999' 
WAVCIS,ioos:station:WAVCIS:CSI09:1,2009-06-01T13:00:00Z,29.1015,-89.9782,0.0,2.524,139.0,,'11111222,11111222,99999999' 
WAVCIS,ioos:station:WAVCIS:CSI09:1,2009-06-01T14:00:00Z,29.1015,-89.9782,0.0,3.356,148.0,,'11111222,11111222,99999999' 
WAVCIS,ioos:station:WAVCIS:CSI09:1,2009-06-01T15:00:00Z,29.1015,-89.9782,0.0,3.329,123.0,,'11111222,11111222,99999999' 
WAVCIS,ioos:station:WAVCIS:CSI09:1,2009-06-01T16:00:00Z,29.1015,-89.9782,0.0,2.515,112.0,,'11111222,11111222,99999999' 
WAVCIS,ioos:station:WAVCIS:CSI09:1,2009-06-01T17:00:00Z,29.1015,-89.9782,0.0,3.897,106.0,,'11111222,11111222,99999999' 
WAVCIS,ioos:station:WAVCIS:CSI09:1,2009-06-01T18:00:00Z,29.1015,-89.9782,0.0,4.401,113.0,,'11111222,11111222,99999999' 
WAVCIS,ioos:station:WAVCIS:CSI09:1,2009-06-01T19:00:00Z,29.1015,-89.9782,0.0,5.335,129.0,,'11111222,11111222,99999999' 
WAVCIS,ioos:station:WAVCIS:CSI09:1,2009-06-01T20:00:00Z,29.1015,-89.9782,0.0,5.158,139.0,,'11111222,11111222,99999999' 
WAVCIS,ioos:station:WAVCIS:CSI09:1,2009-06-01T21:00:00Z,29.1015,-89.9782,0.0,4.398,128.0,,'11111222,11111222,99999999' 
WAVCIS,ioos:station:WAVCIS:CSI09:1,2009-06-01T22:00:00Z,29.1015,-89.9782,0.0,3.909,125.0,,'11111222,11111222,99999999' 
WAVCIS,ioos:station:WAVCIS:CSI09:1,2009-06-01T23:00:00Z,29.1015,-89.9782,0.0,4.326,132.0,,'11111222,11111222,99999999' 
WAVCIS,ioos:station:WAVCIS:CSI09:1,2009-06-02T00:00:00Z,29.1015,-89.9782,0.0,4.526,139.0,,'11111222,11111222,99999999' 
WAVCIS,ioos:station:WAVCIS:CSI09:1,2009-06-02T01:00:00Z,29.1015,-89.9782,0.0,5.036,139.0,,'11111222,11111222,99999999' 
WAVCIS,ioos:station:WAVCIS:CSI09:1,2009-06-02T02:00:00Z,29.1015,-89.9782,0.0,5.178,135.0,,'11111222,11111222,99999999' 
WAVCIS,ioos:station:WAVCIS:CSI09:1,2009-06-02T03:00:00Z,29.1015,-89.9782,0.0,6.279,135.0,,'11111222,11111222,99999999' 
WAVCIS,ioos:station:WAVCIS:CSI09:1,2009-06-02T04:00:00Z,29.1015,-89.9782,0.0,5.667,127.0,,'11111222,11111222,99999999' 
WAVCIS,ioos:station:WAVCIS:CSI09:1,2009-06-02T05:00:00Z,29.1015,-89.9782,0.0,6.658,132.0,,'11111222,11111222,99999999' 
WAVCIS,ioos:station:WAVCIS:CSI09:1,2009-06-02T06:00:00Z,29.1015,-89.9782,0.0,6.421,138.0,,'11111222,11111222,99999999' 
WAVCIS,ioos:station:WAVCIS:CSI09:1,2009-06-02T07:00:00Z,29.1015,-89.9782,0.0,7.22,145.0,,'11111222,11111222,99999999' 
WAVCIS,ioos:station:WAVCIS:CSI09:1,2009-06-02T08:00:00Z,29.1015,-89.9782,0.0,6.894,147.0,,'11111222,11111222,99999999' 
WAVCIS,ioos:station:WAVCIS:CSI09:1,2009-06-02T09:00:00Z,29.1015,-89.9782,0.0,5.948,147.0,,'11111222,11111222,99999999' 
WAVCIS,ioos:station:WAVCIS:CSI09:1,2009-06-02T10:00:00Z,29.1015,-89.9782,0.0,5.529,144.0,,'11111222,11111222,99999999' 
WAVCIS,ioos:station:WAVCIS:CSI09:1,2009-06-02T11:00:00Z,29.1015,-89.9782,0.0,4.497,134.0,,'11111222,11111222,99999999' 
WAVCIS,ioos:station:WAVCIS:CSI09:1,2009-06-02T12:00:00Z,29.1015,-89.9782,0.0,4.83,124.0,,'11111222,11111222,99999999' 
WAVCIS,ioos:station:WAVCIS:CSI09:1,2009-06-02T13:00:00Z,29.1015,-89.9782,0.0,5.729,123.0,,'11111222,11111222,99999999' 
WAVCIS,ioos:station:WAVCIS:CSI09:1,2009-06-02T14:00:00Z,29.1015,-89.9782,0.0,6.11,120.0,,'11111222,11111222,99999999' 
WAVCIS,ioos:station:WAVCIS:CSI09:1,2009-06-02T15:00:00Z,29.1015,-89.9782,0.0,5.134,118.0,,'11111222,11111222,99999999' 
WAVCIS,ioos:station:WAVCIS:CSI09:1,2009-06-02T16:00:00Z,29.1015,-89.9782,0.0,5.824,122.0,,'11111222,11111222,99999999' 
WAVCIS,ioos:station:WAVCIS:CSI09:1,2009-06-02T17:00:00Z,29.1015,-89.9782,0.0,8.02,134.0,,'11111222,11111222,99999999' 
WAVCIS,ioos:station:WAVCIS:CSI09:1,2009-06-02T18:00:00Z,29.1015,-89.9782,0.0,2.651,108.0,,'11111222,11111222,99999999' 
WAVCIS,ioos:station:WAVCIS:CSI09:1,2009-06-02T19:00:00Z,29.1015,-89.9782,0.0,4.273,135.0,,'11111222,11111222,99999999' 
WAVCIS,ioos:station:WAVCIS:CSI09:1,2009-06-02T20:00:00Z,29.1015,-89.9782,0.0,3.219,78.0,,'11111222,11111222,99999999' 
WAVCIS,ioos:station:WAVCIS:CSI09:1,2009-06-02T21:00:00Z,29.1015,-89.9782,0.0,7.0,62.0,,'11111222,11111222,99999999' 
WAVCIS,ioos:station:WAVCIS:CSI09:1,2009-06-02T22:00:00Z,29.1015,-89.9782,0.0,6.245,60.0,,'11111222,11111222,99999999' 
WAVCIS,ioos:station:WAVCIS:CSI09:1,2009-06-02T23:00:00Z,29.1015,-89.9782,0.0,3.952,59.0,,'11111222,11111222,99999999' 
WAVCIS,ioos:station:WAVCIS:CSI09:1,2009-06-03T00:00:00Z,29.1015,-89.9782,0.0,4.866,11.0,,'11111222,11111222,99999999' 
WAVCIS,ioos:station:WAVCIS:CSI09:1,2009-06-03T01:00:00Z,29.1015,-89.9782,0.0,2.629,46.0,,'11111222,11111222,99999999' 
WAVCIS,ioos:station:WAVCIS:CSI09:1,2009-06-03T02:00:00Z,29.1015,-89.9782,0.0,4.197,109.0,,'11111222,11111222,99999999' 
WAVCIS,ioos:station:WAVCIS:CSI09:1,2009-06-03T03:00:00Z,29.1015,-89.9782,0.0,8.16,139.0,,'11111222,11111222,99999999' 
WAVCIS,ioos:station:WAVCIS:CSI09:1,2009-06-03T04:00:00Z,29.1015,-89.9782,0.0,7.68,133.0,,'11111222,11111222,99999999' 
WAVCIS,ioos:station:WAVCIS:CSI09:1,2009-06-03T05:00:00Z,29.1015,-89.9782,0.0,11.65,129.0,,'11111222,11111222,99999999' 
WAVCIS,ioos:station:WAVCIS:CSI09:1,2009-06-03T06:00:00Z,29.1015,-89.9782,0.0,9.19,132.0,,'11111222,11111222,99999999' 
WAVCIS,ioos:station:WAVCIS:CSI09:1,2009-06-03T07:00:00Z,29.1015,-89.9782,0.0,4.445,161.0,,'11111222,11111222,99999999' 
WAVCIS,ioos:station:WAVCIS:CSI09:1,2009-06-03T08:00:00Z,29.1015,-89.9782,0.0,6.084,237.0,,'11111222,11111222,99999999' 
WAVCIS,ioos:station:WAVCIS:CSI09:1,2009-06-03T09:00:00Z,29.1015,-89.9782,0.0,4.972,229.0,,'11111222,11111222,99999999' 
WAVCIS,ioos:station:WAVCIS:CSI09:1,2009-06-03T10:00:00Z,29.1015,-89.9782,0.0,2.686,195.0,,'11111222,11111222,99999999' 
WAVCIS,ioos:station:WAVCIS:CSI09:1,2009-06-03T11:00:00Z,29.1015,-89.9782,0.0,2.429,157.0,,'11111222,11111222,99999999' 
WAVCIS,ioos:station:WAVCIS:CSI09:1,2009-06-03T12:00:00Z,29.1015,-89.9782,0.0,0.519,337.0,,'11111222,11111222,99999999' 
WAVCIS,ioos:station:WAVCIS:CSI09:1,2009-06-03T13:00:00Z,29.1015,-89.9782,0.0,4.685,95.0,,'11111222,11111222,99999999' 
WAVCIS,ioos:station:WAVCIS:CSI09:1,2009-06-03T14:00:00Z,29.1015,-89.9782,0.0,5.541,233.0,,'11111222,11111222,99999999' 
WAVCIS,ioos:station:WAVCIS:CSI09:1,2009-06-03T15:00:00Z,29.1015,-89.9782,0.0,3.322,237.0,,'11111222,11111222,99999999' 
WAVCIS,ioos:station:WAVCIS:CSI09:1,2009-06-03T16:00:00Z,29.1015,-89.9782,0.0,4.002,240.0,,'11111222,11111222,99999999' 
WAVCIS,ioos:station:WAVCIS:CSI09:1,2009-06-03T17:00:00Z,29.1015,-89.9782,0.0,0.926,84.0,,'11111222,11111222,99999999' 
WAVCIS,ioos:station:WAVCIS:CSI09:1,2009-06-03T18:00:00Z,29.1015,-89.9782,0.0,2.518,110.0,,'11111222,11111222,99999999' 
WAVCIS,ioos:station:WAVCIS:CSI09:1,2009-06-03T19:00:00Z,29.1015,-89.9782,0.0,1.511,70.0,,'11111222,11111222,99999999' 
WAVCIS,ioos:station:WAVCIS:CSI09:1,2009-06-03T20:00:00Z,29.1015,-89.9782,0.0,0.883,265.0,,'11111222,11111222,99999999' 
WAVCIS,ioos:station:WAVCIS:CSI09:1,2009-06-03T21:00:00Z,29.1015,-89.9782,0.0,2.6,141.0,,'11111222,11111222,99999999' 
WAVCIS,ioos:station:WAVCIS:CSI09:1,2009-06-03T22:00:00Z,29.1015,-89.9782,0.0,4.223,165.0,,'11111222,11111222,99999999' 
WAVCIS,ioos:station:WAVCIS:CSI09:1,2009-06-03T23:00:00Z,29.1015,-89.9782,0.0,2.49,209.0,,'11111222,11111222,99999999' 
WAVCIS,ioos:station:WAVCIS:CSI09:1,2009-06-04T00:00:00Z,29.1015,-89.9782,0.0,1.468,236.0,,'11111222,11111222,99999999' 
WAVCIS,ioos:station:WAVCIS:CSI09:1,2009-06-04T01:00:00Z,29.1015,-89.9782,0.0,2.248,254.0,,'11111222,11111222,99999999' 
WAVCIS,ioos:station:WAVCIS:CSI09:1,2009-06-04T02:00:00Z,29.1015,-89.9782,0.0,2.267,250.0,,'11111222,11111222,99999999' 
WAVCIS,ioos:station:WAVCIS:CSI09:1,2009-06-04T03:00:00Z,29.1015,-89.9782,0.0,1.957,236.0,,'11111222,11111222,99999999' 
WAVCIS,ioos:station:WAVCIS:CSI09:1,2009-06-04T04:00:00Z,29.1015,-89.9782,0.0,2.208,192.0,,'11111222,11111222,99999999' 
WAVCIS,ioos:station:WAVCIS:CSI09:1,2009-06-04T05:00:00Z,29.1015,-89.9782,0.0,2.046,184.0,,'11111222,11111222,99999999' 
WAVCIS,ioos:station:WAVCIS:CSI09:1,2009-06-04T06:00:00Z,29.1015,-89.9782,0.0,4.347,243.0,,'11111222,11111222,99999999' 
WAVCIS,ioos:station:WAVCIS:CSI09:1,2009-06-04T07:00:00Z,29.1015,-89.9782,0.0,5.125,229.0,,'11111222,11111222,99999999' 
WAVCIS,ioos:station:WAVCIS:CSI09:1,2009-06-04T08:00:00Z,29.1015,-89.9782,0.0,6.493,229.0,,'11111222,11111222,99999999' 
WAVCIS,ioos:station:WAVCIS:CSI09:1,2009-06-04T09:00:00Z,29.1015,-89.9782,0.0,5.427,228.0,,'11111222,11111222,99999999' 
WAVCIS,ioos:station:WAVCIS:CSI09:1,2009-06-04T10:00:00Z,29.1015,-89.9782,0.0,5.207,217.0,,'11111222,11111222,99999999' 
WAVCIS,ioos:station:WAVCIS:CSI09:1,2009-06-04T11:00:00Z,29.1015,-89.9782,0.0,3.816,255.0,,'11111222,11111222,99999999' 
WAVCIS,ioos:station:WAVCIS:CSI09:1,2009-06-04T12:00:00Z,29.1015,-89.9782,0.0,6.554,227.0,,'11111222,11111222,99999999' 
WAVCIS,ioos:station:WAVCIS:CSI09:1,2009-06-04T13:00:00Z,29.1015,-89.9782,0.0,7.32,225.0,,'11111222,11111222,99999999' 
WAVCIS,ioos:station:WAVCIS:CSI09:1,2009-06-04T14:00:00Z,29.1015,-89.9782,0.0,10.21,247.0,,'11111222,11111222,99999999' 
WAVCIS,ioos:station:WAVCIS:CSI09:1,2009-06-04T15:00:00Z,29.1015,-89.9782,0.0,8.88,260.0,,'11111222,11111222,99999999' 
WAVCIS,ioos:station:WAVCIS:CSI09:1,2009-06-04T16:00:00Z,29.1015,-89.9782,0.0,9.17,242.0,,'11111222,11111222,99999999' 
WAVCIS,ioos:station:WAVCIS:CSI09:1,2009-06-04T17:00:00Z,29.1015,-89.9782,0.0,9.88,229.0,,'11111222,11111222,99999999' 
WAVCIS,ioos:station:WAVCIS:CSI09:1,2009-06-04T18:00:00Z,29.1015,-89.9782,0.0,12.19,235.0,,'11111222,11111222,99999999' 
WAVCIS,ioos:station:WAVCIS:CSI09:1,2009-06-04T19:00:00Z,29.1015,-89.9782,0.0,11.39,232.0,,'11111222,11111222,99999999' 
WAVCIS,ioos:station:WAVCIS:CSI09:1,2009-06-04T20:00:00Z,29.1015,-89.9782,0.0,10.43,241.0,,'11111222,11111222,99999999' 
WAVCIS,ioos:station:WAVCIS:CSI09:1,2009-06-04T21:00:00Z,29.1015,-89.9782,0.0,10.42,244.0,,'11111222,11111222,99999999' 
WAVCIS,ioos:station:WAVCIS:CSI09:1,2009-06-04T22:00:00Z,29.1015,-89.9782,0.0,10.44,247.0,,'11111222,11111222,99999999' 
WAVCIS,ioos:station:WAVCIS:CSI09:1,2009-06-04T23:00:00Z,29.1015,-89.9782,0.0,10.23,245.0,,'11111222,11111222,99999999' 
WAVCIS,ioos:station:WAVCIS:CSI09:1,2009-06-05T00:00:00Z,29.1015,-89.9782,0.0,9.87,244.0,,'11111222,11111222,99999999' 
WAVCIS,ioos:station:WAVCIS:CSI09:1,2009-06-05T01:00:00Z,29.1015,-89.9782,0.0,8.34,249.0,,'11111222,11111222,99999999' 
WAVCIS,ioos:station:WAVCIS:CSI09:1,2009-06-05T02:00:00Z,29.1015,-89.9782,0.0,8.63,254.0,,'11111222,11111222,99999999' 
WAVCIS,ioos:station:WAVCIS:CSI09:1,2009-06-05T03:00:00Z,29.1015,-89.9782,0.0,8.53,269.0,,'11111222,11111222,99999999' 
WAVCIS,ioos:station:WAVCIS:CSI09:1,2009-06-05T04:00:00Z,29.1015,-89.9782,0.0,7.25,271.0,,'11111222,11111222,99999999' 
WAVCIS,ioos:station:WAVCIS:CSI09:1,2009-06-05T05:00:00Z,29.1015,-89.9782,0.0,9.05,332.0,,'11111222,11111222,99999999' 
WAVCIS,ioos:station:WAVCIS:CSI09:1,2009-06-05T06:00:00Z,29.1015,-89.9782,0.0,6.774,339.0,,'11111222,11111222,99999999' 
WAVCIS,ioos:station:WAVCIS:CSI09:1,2009-06-05T07:00:00Z,29.1015,-89.9782,0.0,8.13,336.0,,'11111222,11111222,99999999' 
WAVCIS,ioos:station:WAVCIS:CSI09:1,2009-06-05T08:00:00Z,29.1015,-89.9782,0.0,8.72,344.0,,'11111222,11111222,99999999' 
WAVCIS,ioos:station:WAVCIS:CSI09:1,2009-06-05T09:00:00Z,29.1015,-89.9782,0.0,8.57,352.0,,'11111222,11111222,99999999' 
WAVCIS,ioos:station:WAVCIS:CSI09:1,2009-06-05T10:00:00Z,29.1015,-89.9782,0.0,9.41,0.0,,'11111222,11111222,99999999' 
WAVCIS,ioos:station:WAVCIS:CSI09:1,2009-06-05T11:00:00Z,29.1015,-89.9782,0.0,7.78,354.0,,'11111222,11111222,99999999' 
WAVCIS,ioos:station:WAVCIS:CSI09:1,2009-06-05T12:00:00Z,29.1015,-89.9782,0.0,7.35,321.0,,'11111222,11111222,99999999' 
WAVCIS,ioos:station:WAVCIS:CSI09:1,2009-06-05T13:00:00Z,29.1015,-89.9782,0.0,7.3,307.0,,'11111222,11111222,99999999' 
WAVCIS,ioos:station:WAVCIS:CSI09:1,2009-06-05T14:00:00Z,29.1015,-89.9782,0.0,6.237,327.0,,'11111222,11111222,99999999' 
WAVCIS,ioos:station:WAVCIS:CSI09:1,2009-06-05T15:00:00Z,29.1015,-89.9782,0.0,7.6,331.0,,'11111222,11111222,99999999' 
WAVCIS,ioos:station:WAVCIS:CSI09:1,2009-06-05T16:00:00Z,29.1015,-89.9782,0.0,7.75,341.0,,'11111222,11111222,99999999' 
WAVCIS,ioos:station:WAVCIS:CSI09:1,2009-06-05T17:00:00Z,29.1015,-89.9782,0.0,6.429,1.0,,'11111222,11111222,99999999' 
WAVCIS,ioos:station:WAVCIS:CSI09:1,2009-06-05T18:00:00Z,29.1015,-89.9782,0.0,6.227,344.0,,'11111222,11111222,99999999' 
WAVCIS,ioos:station:WAVCIS:CSI09:1,2009-06-05T19:00:00Z,29.1015,-89.9782,0.0,6.558,343.0,,'11111222,11111222,99999999' 
WAVCIS,ioos:station:WAVCIS:CSI09:1,2009-06-05T20:00:00Z,29.1015,-89.9782,0.0,4.305,335.0,,'11111222,11111222,99999999' 
WAVCIS,ioos:station:WAVCIS:CSI09:1,2009-06-05T21:00:00Z,29.1015,-89.9782,0.0,3.946,19.0,,'11111222,11111222,99999999' 
WAVCIS,ioos:station:WAVCIS:CSI09:1,2009-06-05T22:00:00Z,29.1015,-89.9782,0.0,6.326,342.0,,'11111222,11111222,99999999' 
WAVCIS,ioos:station:WAVCIS:CSI09:1,2009-06-05T23:00:00Z,29.1015,-89.9782,0.0,6.536,337.0,,'11111222,11111222,99999999' 
WAVCIS,ioos:station:WAVCIS:CSI09:1,2009-06-06T00:00:00Z,29.1015,-89.9782,0.0,5.402,339.0,,'11111222,11111222,99999999' 
WAVCIS,ioos:station:WAVCIS:CSI09:1,2009-06-06T01:00:00Z,29.1015,-89.9782,0.0,5.089,340.0,,'11111222,11111222,99999999' 
WAVCIS,ioos:station:WAVCIS:CSI09:1,2009-06-06T02:00:00Z,29.1015,-89.9782,0.0,6.332,344.0,,'11111222,11111222,99999999' 
WAVCIS,ioos:station:WAVCIS:CSI09:1,2009-06-06T03:00:00Z,29.1015,-89.9782,0.0,6.4,359.0,,'11111222,11111222,99999999' 
WAVCIS,ioos:station:WAVCIS:CSI09:1,2009-06-06T04:00:00Z,29.1015,-89.9782,0.0,5.947,2.0,,'11111222,11111222,99999999' 
WAVCIS,ioos:station:WAVCIS:CSI09:1,2009-06-06T05:00:00Z,29.1015,-89.9782,0.0,6.257,17.0,,'11111222,11111222,99999999' 
WAVCIS,ioos:station:WAVCIS:CSI09:1,2009-06-06T06:00:00Z,29.1015,-89.9782,0.0,6.634,22.0,,'11111222,11111222,99999999' 
WAVCIS,ioos:station:WAVCIS:CSI09:1,2009-06-06T07:00:00Z,29.1015,-89.9782,0.0,6.523,24.0,,'11111222,11111222,99999999' 
WAVCIS,ioos:station:WAVCIS:CSI09:1,2009-06-06T08:00:00Z,29.1015,-89.9782,0.0,6.557,29.0,,'11111222,11111222,99999999' 
WAVCIS,ioos:station:WAVCIS:CSI09:1,2009-06-06T09:00:00Z,29.1015,-89.9782,0.0,5.867,25.0,,'11111222,11111222,99999999' 
WAVCIS,ioos:station:WAVCIS:CSI09:1,2009-06-06T10:00:00Z,29.1015,-89.9782,0.0,5.726,23.0,,'11111222,11111222,99999999' 
WAVCIS,ioos:station:WAVCIS:CSI09:1,2009-06-06T11:00:00Z,29.1015,-89.9782,0.0,5.193,30.0,,'11111222,11111222,99999999' 
WAVCIS,ioos:station:WAVCIS:CSI09:1,2009-06-06T12:00:00Z,29.1015,-89.9782,0.0,4.594,36.0,,'11111222,11111222,99999999' 
WAVCIS,ioos:station:WAVCIS:CSI09:1,2009-06-06T13:00:00Z,29.1015,-89.9782,0.0,4.558,34.0,,'11111222,11111222,99999999' 
WAVCIS,ioos:station:WAVCIS:CSI09:1,2009-06-06T14:00:00Z,29.1015,-89.9782,0.0,3.972,37.0,,'11111222,11111222,99999999' 
WAVCIS,ioos:station:WAVCIS:CSI09:1,2009-06-06T15:00:00Z,29.1015,-89.9782,0.0,3.638,36.0,,'11111222,11111222,99999999' 
WAVCIS,ioos:station:WAVCIS:CSI09:1,2009-06-06T16:00:00Z,29.1015,-89.9782,0.0,2.197,63.0,,'11111222,11111222,99999999' 
WAVCIS,ioos:station:WAVCIS:CSI09:1,2009-06-06T17:00:00Z,29.1015,-89.9782,0.0,1.797,45.0,,'11111222,11111222,99999999' 
WAVCIS,ioos:station:WAVCIS:CSI09:1,2009-06-06T18:00:00Z,29.1015,-89.9782,0.0,1.21,57.0,,'11111222,11111222,99999999' 
WAVCIS,ioos:station:WAVCIS:CSI09:1,2009-06-06T19:00:00Z,29.1015,-89.9782,0.0,1.233,34.0,,'11111222,11111222,99999999' 
WAVCIS,ioos:station:WAVCIS:CSI09:1,2009-06-06T20:00:00Z,29.1015,-89.9782,0.0,0.823,97.0,,'11111222,11111222,99999999' 
WAVCIS,ioos:station:WAVCIS:CSI09:1,2009-06-06T21:00:00Z,29.1015,-89.9782,0.0,1.558,118.0,,'11111222,11111222,99999999' 
WAVCIS,ioos:station:WAVCIS:CSI09:1,2009-06-06T22:00:00Z,29.1015,-89.9782,0.0,1.508,122.0,,'11111222,11111222,99999999' 
WAVCIS,ioos:station:WAVCIS:CSI09:1,2009-06-06T23:00:00Z,29.1015,-89.9782,0.0,1.461,227.0,,'11111222,11111222,99999999' 
WAVCIS,ioos:station:WAVCIS:CSI09:1,2009-06-07T00:00:00Z,29.1015,-89.9782,0.0,2.194,242.0,,'11111222,11111222,99999999' 
WAVCIS,ioos:station:WAVCIS:CSI09:1,2009-06-07T01:00:00Z,29.1015,-89.9782,0.0,2.443,246.0,,'11111222,11111222,99999999' 
WAVCIS,ioos:station:WAVCIS:CSI09:1,2009-06-07T02:00:00Z,29.1015,-89.9782,0.0,1.023,242.0,,'11111222,11111222,99999999' 
WAVCIS,ioos:station:WAVCIS:CSI09:1,2009-06-07T03:00:00Z,29.1015,-89.9782,0.0,2.13,172.0,,'11111222,11111222,99999999' 
WAVCIS,ioos:station:WAVCIS:CSI09:1,2009-06-07T04:00:00Z,29.1015,-89.9782,0.0,2.146,147.0,,'11111222,11111222,99999999' 
WAVCIS,ioos:station:WAVCIS:CSI09:1,2009-06-07T05:00:00Z,29.1015,-89.9782,0.0,1.994,132.0,,'11111222,11111222,99999999' 
WAVCIS,ioos:station:WAVCIS:CSI09:1,2009-06-07T06:00:00Z,29.1015,-89.9782,0.0,2.584,178.0,,'11111222,11111222,99999999' 
WAVCIS,ioos:station:WAVCIS:CSI09:1,2009-06-07T07:00:00Z,29.1015,-89.9782,0.0,2.378,211.0,,'11111222,11111222,99999999' 
WAVCIS,ioos:station:WAVCIS:CSI09:1,2009-06-07T08:00:00Z,29.1015,-89.9782,0.0,2.089,208.0,,'11111222,11111222,99999999' 
WAVCIS,ioos:station:WAVCIS:CSI09:1,2009-06-07T09:00:00Z,29.1015,-89.9782,0.0,4.237,165.0,,'11111222,11111222,99999999' 
WAVCIS,ioos:station:WAVCIS:CSI09:1,2009-06-07T10:00:00Z,29.1015,-89.9782,0.0,3.309,158.0,,'11111222,11111222,99999999' 
WAVCIS,ioos:station:WAVCIS:CSI09:1,2009-06-07T11:00:00Z,29.1015,-89.9782,0.0,3.922,154.0,,'11111222,11111222,99999999' 
WAVCIS,ioos:station:WAVCIS:CSI09:1,2009-06-07T12:00:00Z,29.1015,-89.9782,0.0,4.163,144.0,,'11111222,11111222,99999999' 
WAVCIS,ioos:station:WAVCIS:CSI09:1,2009-06-07T13:00:00Z,29.1015,-89.9782,0.0,2.87,151.0,,'11111222,11111222,99999999' 
WAVCIS,ioos:station:WAVCIS:CSI09:1,2009-06-07T14:00:00Z,29.1015,-89.9782,0.0,4.043,145.0,,'11111222,11111222,99999999' 
WAVCIS,ioos:station:WAVCIS:CSI09:1,2009-06-07T15:00:00Z,29.1015,-89.9782,0.0,3.704,149.0,,'11111222,11111222,99999999' 
WAVCIS,ioos:station:WAVCIS:CSI09:1,2009-06-07T16:00:00Z,29.1015,-89.9782,0.0,3.801,154.0,,'11111222,11111222,99999999' 
WAVCIS,ioos:station:WAVCIS:CSI09:1,2009-06-07T17:00:00Z,29.1015,-89.9782,0.0,3.257,155.0,,'11111222,11111222,99999999' 
WAVCIS,ioos:station:WAVCIS:CSI09:1,2009-06-07T18:00:00Z,29.1015,-89.9782,0.0,3.207,142.0,,'11111222,11111222,99999999' 
WAVCIS,ioos:station:WAVCIS:CSI09:1,2009-06-07T19:00:00Z,29.1015,-89.9782,0.0,2.904,148.0,,'11111222,11111222,99999999' 
WAVCIS,ioos:station:WAVCIS:CSI09:1,2009-06-07T20:00:00Z,29.1015,-89.9782,0.0,3.309,153.0,,'11111222,11111222,99999999' 
WAVCIS,ioos:station:WAVCIS:CSI09:1,2009-06-07T21:00:00Z,29.1015,-89.9782,0.0,2.36,146.0,,'11111222,11111222,99999999' 
WAVCIS,ioos:station:WAVCIS:CSI09:1,2009-06-07T22:00:00Z,29.1015,-89.9782,0.0,2.151,158.0,,'11111222,11111222,99999999' 
WAVCIS,ioos:station:WAVCIS:CSI09:1,2009-06-07T23:00:00Z,29.1015,-89.9782,0.0,2.256,161.0,,'11111222,11111222,99999999' 
WAVCIS,ioos:station:WAVCIS:CSI09:1,2009-06-08T00:00:00Z,29.1015,-89.9782,0.0,2.802,156.0,,'11111222,11111222,99999999' 
WAVCIS,ioos:station:WAVCIS:CSI09:1,2009-06-08T01:00:00Z,29.1015,-89.9782,0.0,3.084,153.0,,'11111222,11111222,99999999' 
WAVCIS,ioos:station:WAVCIS:CSI09:1,2009-06-08T02:00:00Z,29.1015,-89.9782,0.0,3.267,155.0,,'11111222,11111222,99999999' 
WAVCIS,ioos:station:WAVCIS:CSI09:1,2009-06-08T03:00:00Z,29.1015,-89.9782,0.0,4.509,134.0,,'11111222,11111222,99999999' 
WAVCIS,ioos:station:WAVCIS:CSI09:1,2009-06-08T04:00:00Z,29.1015,-89.9782,0.0,4.116,135.0,,'11111222,11111222,99999999' 
WAVCIS,ioos:station:WAVCIS:CSI09:1,2009-06-08T05:00:00Z,29.1015,-89.9782,0.0,5.18,147.0,,'11111222,11111222,99999999' 
WAVCIS,ioos:station:WAVCIS:CSI09:1,2009-06-08T06:00:00Z,29.1015,-89.9782,0.0,4.93,147.0,,'11111222,11111222,99999999' 
WAVCIS,ioos:station:WAVCIS:CSI09:1,2009-06-08T07:00:00Z,29.1015,-89.9782,0.0,4.72,149.0,,'11111222,11111222,99999999' 
WAVCIS,ioos:station:WAVCIS:CSI09:1,2009-06-08T08:00:00Z,29.1015,-89.9782,0.0,5.478,156.0,,'11111222,11111222,99999999' 
WAVCIS,ioos:station:WAVCIS:CSI09:1,2009-06-08T09:00:00Z,29.1015,-89.9782,0.0,4.833,152.0,,'11111222,11111222,99999999' 
WAVCIS,ioos:station:WAVCIS:CSI09:1,2009-06-08T10:00:00Z,29.1015,-89.9782,0.0,5.481,156.0,,'11111222,11111222,99999999' 
WAVCIS,ioos:station:WAVCIS:CSI09:1,2009-06-08T11:00:00Z,29.1015,-89.9782,0.0,5.315,157.0,,'11111222,11111222,99999999' 
WAVCIS,ioos:station:WAVCIS:CSI09:1,2009-06-08T12:00:00Z,29.1015,-89.9782,0.0,5.241,168.0,,'11111222,11111222,99999999' 
WAVCIS,ioos:station:WAVCIS:CSI09:1,2009-06-08T13:00:00Z,29.1015,-89.9782,0.0,5.551,165.0,,'11111222,11111222,99999999' 
WAVCIS,ioos:station:WAVCIS:CSI09:1,2009-06-08T14:00:00Z,29.1015,-89.9782,0.0,4.789,159.0,,'11111222,11111222,99999999' 
WAVCIS,ioos:station:WAVCIS:CSI09:1,2009-06-08T15:00:00Z,29.1015,-89.9782,0.0,4.33,155.0,,'11111222,11111222,99999999' 
WAVCIS,ioos:station:WAVCIS:CSI09:1,2009-06-08T16:00:00Z,29.1015,-89.9782,0.0,3.717,154.0,,'11111222,11111222,99999999' 
WAVCIS,ioos:station:WAVCIS:CSI09:1,2009-06-08T17:00:00Z,29.1015,-89.9782,0.0,3.54,157.0,,'11111222,11111222,99999999' 
WAVCIS,ioos:station:WAVCIS:CSI09:1,2009-06-08T18:00:00Z,29.1015,-89.9782,0.0,4.094,156.0,,'11111222,11111222,99999999' 
WAVCIS,ioos:station:WAVCIS:CSI09:1,2009-06-08T19:00:00Z,29.1015,-89.9782,0.0,3.455,149.0,,'11111222,11111222,99999999' 
WAVCIS,ioos:station:WAVCIS:CSI09:1,2009-06-08T20:00:00Z,29.1015,-89.9782,0.0,4.226,147.0,,'11111222,11111222,99999999' 
WAVCIS,ioos:station:WAVCIS:CSI09:1,2009-06-08T21:00:00Z,29.1015,-89.9782,0.0,4.013,150.0,,'11111222,11111222,99999999' 
WAVCIS,ioos:station:WAVCIS:CSI09:1,2009-06-08T22:00:00Z,29.1015,-89.9782,0.0,3.913,153.0,,'11111222,11111222,99999999' 
WAVCIS,ioos:station:WAVCIS:CSI09:1,2009-06-08T23:00:00Z,29.1015,-89.9782,0.0,4.007,157.0,,'11111222,11111222,99999999' 
WAVCIS,ioos:station:WAVCIS:CSI09:1,2009-06-09T00:00:00Z,29.1015,-89.9782,0.0,5.18,157.0,,'11111222,11111222,99999999' 
WAVCIS,ioos:station:WAVCIS:CSI09:1,2009-06-09T01:00:00Z,29.1015,-89.9782,0.0,6.304,164.0,,'11111222,11111222,99999999' 
WAVCIS,ioos:station:WAVCIS:CSI09:1,2009-06-09T02:00:00Z,29.1015,-89.9782,0.0,5.157,154.0,,'11111222,11111222,99999999' 
WAVCIS,ioos:station:WAVCIS:CSI09:1,2009-06-09T03:00:00Z,29.1015,-89.9782,0.0,5.701,149.0,,'11111222,11111222,99999999' 
WAVCIS,ioos:station:WAVCIS:CSI09:1,2009-06-09T04:00:00Z,29.1015,-89.9782,0.0,6.491,156.0,,'11111222,11111222,99999999' 
WAVCIS,ioos:station:WAVCIS:CSI09:1,2009-06-09T05:00:00Z,29.1015,-89.9782,0.0,6.159,160.0,,'11111222,11111222,99999999' 
WAVCIS,ioos:station:WAVCIS:CSI09:1,2009-06-09T06:00:00Z,29.1015,-89.9782,0.0,5.761,165.0,,'11111222,11111222,99999999' 